Weather History for Belleville, IL

Change the Weather History Date:

Monday, November 19, 2012

  Actual Average Record
Temperature  
Mean Temperature 46 °F -  
Max Temperature 59 °F 56 °F 75 °F (1991)
Min Temperature 33 °F 36 °F 20 °F (1951)
Degree Days  
Heating Degree Days 19    
Moisture  
Dew Point 38 °F    
Average Humidity 76    
Maximum Humidity 100    
Minimum Humidity 47    
Precipitation  
Precipitation 0.00 in - - ()
Sea Level Pressure  
Sea Level Pressure 30.24 in    
Wind  
Wind Speed 2 mph (South)    
Max Wind Speed 7 mph    
Max Gust Speed -    
Visibility 8 miles    
Events      
Averages and records for this station are not official NWS values.
T = Trace of Precipitation, MM = Missing Value Source: NWS Daily Summary

Daily Weather History Graph

Daily Weather History Graph

Search for Another Location

Airport:

Trip Planner

Search our weather history database for the weather conditions in past years. The results will help you decide how hot, cold, wet, or windy it might be!

Date:

Astronomy

Nov. 19, 2012 Rise Set
Actual Time 6:46 AM CST 4:43 PM CST
Civil Twilight 6:17 AM CST 5:11 PM CST
Nautical Twilight 5:45 AM CST 5:44 PM CST
Astronomical Twilight 5:13 AM CST 6:15 PM CST
Moon 11:50 AM CST (11/19) 11:08 PM CST (11/19)
Length of Visible Light 10h 54m
Length of Day
9h 57m
Waxing Crescent, 41% of the Moon is Illuminated
Nov 19
Waxing Crescent
Nov 20
First Quarter
Nov 28
Full
Dec 6
Last Quarter
Dec 13
New

Hourly Weather History & Observations

Time (CST) Temp. Dew Point Humidity Pressure Visibility Wind Dir Wind Speed Gust Speed Precip Events Conditions
12:55 AM 36.9 °F 34.3 °F 91% 30.30 in 10.0 mi Calm Calm - N/A   Scattered Clouds
1:55 AM 36.1 °F 34.3 °F 93% 30.30 in 10.0 mi Calm Calm - N/A   Clear
2:55 AM 34.7 °F 33.3 °F 94% 30.31 in 9.0 mi Calm Calm - N/A   Clear
3:55 AM 34.0 °F 32.9 °F 96% 30.28 in 9.0 mi Calm Calm - N/A   Mostly Cloudy
4:02 AM 33.8 °F 33.8 °F 100% 30.28 in 8.0 mi Calm Calm - N/A   Scattered Clouds
4:08 AM 33.8 °F 32.0 °F 93% 30.28 in 9.0 mi Calm Calm - N/A   Partly Cloudy
4:55 AM 34.3 °F 32.4 °F 92% 30.30 in 10.0 mi Calm Calm - N/A   Mostly Cloudy
5:53 AM 35.6 °F 33.8 °F 93% 30.30 in 8.0 mi Calm Calm - N/A   Mostly Cloudy
5:55 AM 35.2 °F 34.3 °F 97% 30.30 in 9.0 mi Calm Calm - N/A   Mostly Cloudy
6:25 AM 35.6 °F 33.8 °F 93% 30.30 in 9.0 mi Calm Calm - N/A   Clear
6:55 AM 35.6 °F 34.2 °F 94% 30.30 in 10.0 mi Calm Calm - N/A   Mostly Cloudy
7:55 AM 39.4 °F 37.8 °F 94% 30.31 in 8.0 mi Calm Calm - N/A   Overcast
8:55 AM 46.9 °F 39.0 °F 74% 30.30 in 5.0 mi South 6.9 mph - N/A   Haze
9:55 AM 51.1 °F 40.1 °F 66% 30.29 in 4.0 mi South 5.8 mph - N/A   Haze
10:55 AM 54.7 °F 40.6 °F 59% 30.28 in 4.0 mi South 6.9 mph - N/A   Haze
11:55 AM 56.3 °F 39.4 °F 53% 30.25 in 4.0 mi South 4.6 mph - N/A   Haze
12:55 PM 58.5 °F 38.3 °F 47% 30.23 in 3.0 mi WSW 6.9 mph - N/A   Haze
1:13 PM 59.0 °F 39.2 °F 48% 30.22 in 1.5 mi SSW 6.9 mph - N/A   Haze
1:55 PM 58.8 °F 40.1 °F 50% 30.21 in 10.0 mi SW 3.5 mph - N/A   Overcast
2:55 PM 58.1 °F 39.9 °F 51% 30.19 in 10.0 mi SSE 4.6 mph - N/A   Overcast
3:55 PM 58.3 °F 41.4 °F 53% 30.18 in 10.0 mi SE 5.8 mph - N/A   Overcast
4:55 PM 55.4 °F 41.0 °F 58% 30.17 in 10.0 mi SSE 5.8 mph - N/A   Overcast
5:55 PM 51.3 °F 40.5 °F 67% 30.17 in 10.0 mi SSE 5.8 mph - N/A   Scattered Clouds
6:55 PM 48.0 °F 40.5 °F 75% 30.17 in 10.0 mi SSE 4.6 mph - N/A   Mostly Cloudy
7:55 PM 48.0 °F 38.5 °F 70% 30.17 in 10.0 mi Calm Calm - N/A   Partly Cloudy
8:55 PM 48.0 °F 38.8 °F 71% 30.16 in 10.0 mi SSE 4.6 mph - N/A   Scattered Clouds
9:55 PM 46.9 °F 41.0 °F 80% 30.14 in 10.0 mi Calm Calm - N/A   Overcast
10:55 PM 48.4 °F 41.7 °F 78% 30.14 in 10.0 mi South 3.5 mph - N/A   Overcast
11:55 PM 47.5 °F 41.0 °F 78% 30.14 in 10.0 mi Calm Calm - N/A   Overcast